Notices

What's New in latest Release from April 7th, 2021:

- Updated Glossary, including Speed of Maximum Gust, and Total Hourly Precipitation

- Updated national and regional climate services offices contacts and prices information

- Addition of station inventory lists for 1981-2010, 1971-2000, and 1961-1990 Normals.

If you haven't already, please take our survey and provide feedback about our website: https://eccc.sondage-survey.ca/f/LanguageSelection.aspx?s=442ca660-fcf1-47c0-95a9-59707d6fd709

Hourly Data Report for September 07, 2016

SHEARWATER RCS
NOVA SCOTIA

44°37'47.000" N
63°30'48.000" W
24.00 m
8205092
71264
AAW

Download Data

Hourly Data (September 2016)
Hourly Data Report for September 7, 2016
TIME
LST
Temp Definition
°C
Dew Point Definition
°C
Rel Hum Definition
%
Precip. Amount Definition
mm

Wind Dir Definition
10's deg

Wind Spd Definition
km/h
Visibility Definition
km
Stn Press Definition
kPa
Hmdx Definition


Wind Chill Definition


Weather Definition


00:00 19.9 19.2 96 0.0 20 7   101.92     LegendNANA
01:00 19.9 19.2 96 0.0 24 3   101.90     LegendNANA
02:00 19.7 19.1 96 0.0 24 6   101.86     LegendNANA
03:00 19.5 18.8 96 0.0 24 3   101.85     LegendNANA
04:00 19.2 18.6 96 0.0 24 2   101.85     LegendNANA
05:00 18.5 17.9 96 0.0 15 6   101.87     LegendNANA
06:00 18.0 17.4 96 0.0 15 4   101.92     LegendNANA
07:00 18.5 17.9 96 0.0   0   101.92     LegendNANA
08:00 19.3 18.7 96 0.0   0   101.90     LegendNANA
09:00 20.5 19.8 96 0.0 13 3   101.92 28   LegendNANA
10:00 20.3 19.6 96 0.0 16 7   101.93 28   LegendNANA
11:00 20.6 19.8 96 0.0 15 11   101.89 28   LegendNANA
12:00 21.8 21.0 95 0.0 15 6   101.85 30   LegendNANA
13:00 24.1 21.2 84 0.0 16 12   101.80 33   LegendNANA
14:00 25.6 20.7 75 0.0 16 16   101.73 34   LegendNANA
15:00 25.6 20.5 73 0.0 16 16   101.66 34   LegendNANA
16:00 23.3 19.6 79 0.0 16 17   101.64 31   LegendNANA
17:00 23.5 19.5 79 0.0 17 11   101.63 31   LegendNANA
18:00 21.9 19.2 85 0.0 19 13   101.62 29   LegendNANA
19:00 21.5 19.5 88 0.0 21 12   101.63 29   LegendNANA
20:00 20.9 19.5 92 0.0 20 8   101.62 28   LegendNANA
21:00 21.0 19.6 92 0.0 23 3   101.59 28   LegendNANA
22:00 20.5 19.1 92 0.0 26 6   101.59 27   LegendNANA
23:00 20.0 18.9 93 0.0 26 5   101.59 27   LegendNANA

Notes on Data Quality.

Legend

  • E = Estimated
  • M = Missing
  • NA = Not Available*
  • [empty] = Indicates an unobserved value
Date modified: